[[{"header":{"parameterUnit":"m.s-1","parameterCategory":1,"la1":30.2991,"la2":30.254,"lo1":-89.0895,"lo2":-89.0444,"dy":0.0017,"dx":0.0017,"nx":28,"ny":28,"refTime":"2024-11-25T03:00:00:Z","depth":0,"parameterNumber":2,"parameterNumberName":"U-component_of_WINDS"},"data":[0,0,0,0,0,0,0,0,0,0,0,0,0,0,0,0,0,0,0,0,0,0,0,0,0,0,0,0,0,0,0,0,0,0,0,0,0,0,0,0,0,0,0,0,0,0,0,0,0,0,0,0,0,0,0,0,0,0,0.8346,0.8347,0,0.8407,0.8408,0.8408,0.8373,0.8372,0.837,0.8368,0.8435,0.8438,0.8441,0,0,0,0,0,0,0,0,0,0,0,0,0,0.8204,0.8206,0.8346,0.8347,0.8347,0.8407,0.8408,0.8408,0.8374,0.8371,0.8369,0.8367,0.8433,0.8437,0.8442,0,0,0,0,0,0,0,0,0,0,0,0,0,0.8265,0.8207,0.8346,0.8337,0.8337,0.8407,0.8408,0.8409,0.8374,0.8371,0.8369,0.8366,0.8432,0.8437,0.8442,0.8525,0,0,0.8458,0.846,0,0,0,0,0,0,0,0,0.8262,0.8271,0.8338,0.8338,0.8338,0.838,0.8382,0.8448,0.8375,0.836,0.8368,0.8365,0.8419,0.8425,0.8442,0.8528,0.8531,0.8458,0.8461,0.8463,0.8465,0,0,0,0,0,0,0,0.8258,0.8268,0.837,0.8339,0.8339,0.8332,0.8337,0.8394,0.8403,0.8361,0.8359,0.8366,0.8418,0.8437,0.8443,0.8532,0.8458,0.8462,0.8465,0.8467,0.8691,0.8694,0,0,0,0,0,0,0.8253,0.8264,0.8368,0.8372,0.8292,0.8336,0.8343,0.8369,0.8402,0.8405,0.8368,0.8364,0.843,0.8437,0.8445,0.8545,0.8463,0.8468,0.8471,0.8688,0.8692,0.8695,0,0,0,0,0,0,0.825,0.8263,0.8366,0.8318,0.833,0.8341,0.8371,0.8371,0.839,0.8408,0.841,0.8386,0.8428,0.8438,0.8505,0.8547,0.847,0.8475,0.8685,0.8689,0.8693,0.8745,0,0,0,0,0,0,0.8247,0.8262,0.8292,0.8318,0.8333,0.8423,0.8374,0.8375,0.8399,0.8394,0.8425,0.8427,0.8427,0.8498,0.8511,0.8552,0.8479,0.8681,0.8687,0.8692,0.8739,0.875,0.876,0,0,0,0,0,0.8242,0.8305,0.8294,0.8307,0.8371,0.8426,0.8434,0.8431,0.8402,0.8433,0.8445,0.8426,0.8541,0.8505,0.8519,0.8563,0.8678,0.8685,0.8691,0.8735,0.8748,0.8759,0,0,0,0,0,0,0.8284,0.8308,0.8296,0.837,0.8396,0.842,0.8459,0.8445,0.8481,0.8475,0.8471,0.8479,0.8549,0.8563,0.8523,0.8646,0.8605,0.8615,0.8634,0.8646,0.8656,0.8651,0.8483,0,0,0,0,0,0.8302,0.8344,0.8363,0.8426,0.844,0.8447,0.8471,0.8467,0.8494,0.8505,0.8522,0.855,0.8593,0.862,0.866,0.8742,0.8749,0.8779,0.8789,0.8798,0.8806,0.8851,0.8865,0.8716,0.8716,0.8716,0,0,0.834,0.8358,0.8385,0.8435,0.8455,0.8499,0.8457,0.8505,0.8538,0.8513,0.8577,0.859,0.8622,0.8697,0.8731,0.8711,0.8849,0.8806,0.8812,0.8816,0.8859,0.8873,0.8885,0.872,0.872,0.8719,0,0,0.8431,0.8448,0.8503,0.8524,0.8554,0.8559,0.8572,0.8598,0.8606,0.867,0.8652,0.8693,0.8766,0.8789,0.8811,0.8913,0.8897,0.8926,0.8979,0.9023,0.9035,0.9045,0.9082,0.9095,0.8934,0.8935,0.8935,0,0.8474,0.8538,0.8533,0.8583,0.8607,0.8585,0.8642,0.8662,0.8705,0.8722,0.8699,0.8791,0.8811,0.8891,0.8916,0.8934,0.895,0.8922,0.9033,0.9043,0.9053,0.9088,0.9102,0.8938,0.8938,0.8937,0.8937,0,0.859,0.8635,0.8676,0.8716,0.8745,0.8798,0.8802,0.8832,0.8826,0.8834,0.8901,0.8924,0.8968,0.8988,0.8982,0.9068,0.9055,0.9033,0.8992,0.9071,0.9103,0.9117,0.8943,0.8941,0.894,0.894,0,0,0.8707,0.8745,0.876,0.8778,0.8811,0.8847,0.89,0.8943,0.8968,0.8999,0.9044,0.9107,0.9087,0.9112,0.911,0.9149,0.9229,0.9122,0.9123,0.9141,0.9325,0.9341,0.9356,0.9219,0.9222,0.9224,0.9322,0,0.8799,0.889,0.8888,0.8973,0.9016,0.8997,0.9044,0.907,0.908,0.9118,0.913,0.9174,0.9145,0.9159,0.9197,0.9211,0.9265,0.9204,0.9262,0.9264,0.9253,0.9373,0.939,0.9482,0.9335,0.9337,0.9339,0,0.8919,0.8952,0.9041,0.9069,0.9086,0.9128,0.9168,0.9205,0.9235,0.9239,0.9268,0.926,0.9316,0.9274,0.9352,0.931,0.9334,0.9345,0.9348,0.9353,0.9305,0.9381,0.9511,0.9524,0.9359,0.9357,0.9356,0,0.8995,0.9063,0.9125,0.9141,0.9175,0.9205,0.9221,0.9248,0.9274,0.931,0.9327,0.937,0.9393,0.9427,0.9431,0.94,0.951,0.9468,0.9516,0.9516,0.9539,0.9537,0.9674,0.9556,0.9556,0.9555,0.9555,0,0.9097,0.9153,0.916,0.9198,0.926,0.9259,0.932,0.9334,0.9359,0.9401,0.9388,0.9428,0.9432,0.9474,0.9478,0.9542,0.9553,0.9559,0.956,0.956,0.9559,0.9575,0.9568,0.9559,0.9558,0.9557,0.9557,0,0.9192,0.9199,0.9266,0.9292,0.9301,0.9345,0.9369,0.9406,0.9415,0.9468,0.9481,0.9496,0.9544,0.9552,0.961,0.9613,0.969,0.9684,0.9679,0.9678,0.9725,0.972,0.9876,0.9897,0.9766,0.9767,0.9768,0,0.9256,0.9298,0.933,0.9356,0.9373,0.9416,0.9443,0.9445,0.9474,0.9512,0.9545,0.9592,0.963,0.9709,0.9726,0.977,0.9765,0.9817,0.9772,0.9771,0.9766,0.9763,0.9767,0.9825,0.9826,0.9828,0.9829,0,0.937,0.9372,0.941,0.945,0.9482,0.9514,0.9545,0.9568,0.9574,0.9607,0.9656,0.9685,0.9744,0.9791,0.9836,0.9854,0.9843,0.9843,0.9856,0.9856,0.9851,0.9855,0.9702,0.9839,0.9838,0.9837,0.9837,0.9836,0.9451,0.9488,0.9516,0.9559,0.9583,0.9612,0.9648,0.9662,0.9702,0.9749,0.9749,0.9803,0.9834,0.9892,0.9914,0.9957,0.9941,0.996,0.9965,0.997,0.9974,0.9845,0.9966,0.9965,0.9965,0.9965,0.9965,0,0.9564,0.9581,0.9621,0.9664,0.9699,0.9685,0.9718,0.9749,0.9796,0.9826,0.9863,0.992,0.9967,0.9988,1.0034,1.0065,1.0061,1.0077,1.0075,1.0079,0.9986,0.9969,1.008,1.008,1.008,1.0079,1.0079,1.0079,0.9626,0.9687,0.9693,0.9767,0.9784,0.9836,0.9856,0.9884,0.9907,0.9971,1.0009,1.0023,1.005,1.0098,1.0141,1.0146,1.0164,1.0182,1.0185,1.0097,1.0086,1.0074,1.0059,1.0186,1.0186,1.0275,1.0275,1.0276]},{"header":{"parameterUnit":"m.s-1","parameterCategory":1,"la1":30.2991,"la2":30.254,"lo1":-89.0895,"lo2":-89.0444,"dy":0.0017,"dx":0.0017,"nx":28,"ny":28,"refTime":"2024-11-25T03:00:00:Z","depth":0,"parameterNumber":3,"parameterNumberName":"V-component_of_WINDS"},"data":[0,0,0,0,0,0,0,0,0,0,0,0,0,0,0,0,0,0,0,0,0,0,0,0,0,0,0,0,0,0,0,0,0,0,0,0,0,0,0,0,0,0,0,0,0,0,0,0,0,0,0,0,0,0,0,0,0,0,1.8845,1.8846,0,1.896,1.8961,1.8963,1.8951,1.8949,1.8947,1.8945,1.9062,1.9066,1.9071,0,0,0,0,0,0,0,0,0,0,0,0,0,1.8614,1.8619,1.8845,1.8847,1.8848,1.896,1.8961,1.8963,1.8951,1.8949,1.8947,1.8945,1.906,1.9066,1.9071,0,0,0,0,0,0,0,0,0,0,0,0,0,1.872,1.862,1.8845,1.8856,1.8858,1.896,1.8961,1.8963,1.8951,1.8949,1.8946,1.8943,1.9058,1.9065,1.9072,1.9171,0,0,1.9094,1.9097,0,0,0,0,0,0,0,0,1.8714,1.8729,1.8853,1.8855,1.8858,1.8938,1.8923,1.9033,1.8952,1.8916,1.8945,1.8942,1.9023,1.9033,1.906,1.9176,1.9181,1.9095,1.9099,1.9102,1.9104,0,0,0,0,0,0,0,1.8707,1.8724,1.8891,1.8854,1.8857,1.8854,1.8866,1.8944,1.8983,1.8919,1.8918,1.8932,1.9024,1.9053,1.9063,1.9183,1.9095,1.9101,1.9105,1.9108,1.9386,1.9389,0,0,0,0,0,0,1.8697,1.8718,1.8887,1.8894,1.8778,1.8861,1.8874,1.8915,1.8982,1.899,1.8934,1.8931,1.9042,1.9054,1.9067,1.9187,1.9102,1.9109,1.9113,1.9383,1.9387,1.9391,0,0,0,0,0,0,1.8692,1.8713,1.8882,1.8806,1.8827,1.8867,1.8914,1.8919,1.8948,1.8994,1.9001,1.8957,1.9041,1.9057,1.9145,1.9191,1.9112,1.9119,1.938,1.9385,1.9389,1.9429,0,0,0,0,0,0,1.8686,1.8711,1.8749,1.8807,1.8831,1.8959,1.8916,1.8923,1.8961,1.8958,1.9017,1.9025,1.904,1.9135,1.9152,1.92,1.9124,1.9376,1.9382,1.9387,1.9424,1.9434,1.9443,0,0,0,0,0,1.8678,1.8755,1.8751,1.8771,1.888,1.8962,1.8976,1.8992,1.8965,1.9003,1.9032,1.9023,1.9183,1.9144,1.9164,1.9214,1.9373,1.938,1.9387,1.9419,1.9432,1.9443,0,0,0,0,0,0,1.87,1.8763,1.8759,1.8857,1.8904,1.896,1.9009,1.9005,1.9061,1.9056,1.9073,1.9087,1.9176,1.9204,1.9159,1.9313,1.9274,1.9286,1.9292,1.9305,1.9314,1.9306,1.913,0,0,0,0,0,1.8717,1.8779,1.883,1.8911,1.8935,1.8968,1.9004,1.9013,1.9062,1.9082,1.9118,1.9166,1.9227,1.9267,1.9326,1.9427,1.9441,1.9472,1.9481,1.9489,1.9499,1.9556,1.957,1.9413,1.9413,1.9413,0,0,1.8751,1.8793,1.8831,1.8917,1.8955,1.9018,1.8985,1.9053,1.9101,1.9092,1.9179,1.9207,1.9262,1.9357,1.9401,1.9383,1.9545,1.9498,1.9504,1.951,1.9564,1.9579,1.9592,1.9418,1.9417,1.9417,0,0,1.8847,1.8885,1.8958,1.8996,1.9054,1.9076,1.9093,1.9149,1.9168,1.9255,1.925,1.9307,1.9412,1.9452,1.9485,1.9598,1.9591,1.9616,1.9668,1.9723,1.9735,1.9747,1.9788,1.9802,1.9625,1.9626,1.9626,0,1.8883,1.8979,1.8995,1.9065,1.9104,1.91,1.9174,1.921,1.9284,1.9311,1.9289,1.9422,1.9458,1.9564,1.9591,1.9619,1.964,1.961,1.9732,1.9744,1.9754,1.9794,1.9809,1.9628,1.9628,1.9628,1.9627,0,1.9021,1.9087,1.9139,1.9212,1.9256,1.9327,1.9354,1.9397,1.9402,1.9426,1.9515,1.9558,1.9627,1.9652,1.9657,1.9759,1.9746,1.9728,1.969,1.9772,1.9809,1.9824,1.9632,1.9631,1.9631,1.963,0,0,1.9134,1.9215,1.9234,1.9268,1.9331,1.9383,1.9455,1.9522,1.9559,1.961,1.9671,1.976,1.9745,1.9783,1.9793,1.9841,1.9928,1.9818,1.9819,1.9838,2.0044,2.0058,2.0075,1.9924,1.9927,1.9929,2.004,0,1.9237,1.9364,1.9381,1.9494,1.9557,1.9554,1.9616,1.9662,1.9687,1.9743,1.9769,1.9833,1.9807,1.983,1.9878,1.9908,1.997,1.99,1.9982,1.9984,1.9969,2.0094,2.0109,2.0211,2.0055,2.0057,2.0059,0,1.9374,1.943,1.9549,1.9606,1.9633,1.9689,1.9752,1.9806,1.9858,1.9873,1.9916,1.992,1.9994,1.9952,2.0055,2.0007,2.0041,2.0061,2.0066,2.0074,2.0027,2.0108,2.0244,2.026,2.0082,2.008,2.0078,0,1.9446,1.9551,1.9637,1.9665,1.9733,1.9772,1.9802,1.9852,1.9892,1.9947,1.9973,2.0037,2.0071,2.012,2.0141,2.0109,2.0244,2.0203,2.0258,2.0258,2.0287,2.0285,2.0432,2.0308,2.0307,2.0307,2.0307,0,1.956,1.9633,1.967,1.9723,1.9805,1.9824,1.9905,1.9933,1.9977,2.0035,2.0037,2.0091,2.0115,2.0173,2.019,2.0273,2.0289,2.0303,2.0306,2.0303,2.0302,2.0326,2.032,2.0311,2.031,2.0309,2.0309,0,1.9654,1.9682,1.9775,1.9832,1.9848,1.9906,1.9955,2.0006,2.0029,2.0103,2.0121,2.0159,2.0227,2.0253,2.0336,2.0348,2.0445,2.0442,2.0427,2.0429,2.0482,2.0477,2.0651,2.0675,2.0534,2.0535,2.0537,0,1.9726,1.9782,1.9845,1.9885,1.9917,1.998,2.0021,2.0041,2.0084,2.0149,2.0192,2.0261,2.0317,2.0427,2.0461,2.0525,2.0525,2.0581,2.0535,2.053,2.0527,2.0524,2.053,2.059,2.0592,2.0593,2.0594,0,1.9849,1.9861,1.992,1.9985,2.0034,2.0086,2.0136,2.0168,2.0196,2.0244,2.0315,2.0358,2.0444,2.0513,2.0579,2.0609,2.0607,2.0608,2.0625,2.0622,2.0612,2.0619,2.0452,2.0604,2.0603,2.0602,2.0602,2.0601,1.9935,1.9986,2.0039,2.0105,2.0145,2.0192,2.0244,2.0274,2.0334,2.0406,2.0414,2.0491,2.0542,2.0631,2.0664,2.0725,2.0709,2.0733,2.0739,2.0744,2.0749,2.0602,2.0736,2.0736,2.0736,2.0736,2.0736,0,2.006,2.0094,2.0155,2.0226,2.0278,2.0272,2.0327,2.0371,2.0439,2.0487,2.0543,2.0624,2.0691,2.0731,2.0798,2.0839,2.0839,2.0856,2.0853,2.0861,2.0758,2.0738,2.0854,2.0854,2.0854,2.0854,2.0854,2.0854,2.0131,2.0217,2.0235,2.034,2.0374,2.0449,2.0482,2.0525,2.0564,2.0656,2.0711,2.0737,2.0783,2.0853,2.0914,2.0924,2.0949,2.0967,2.0976,2.088,2.0868,2.0856,2.0837,2.0972,2.0972,2.1074,2.1075,2.1075]}]]